Location: Bartshausen
(51.8454°N, 9.8167°E)
Time: 06:41:21
(UTC+00:00)

NOSS 2-1 (D) - Pass Details

Date: 08 November 2025
Orbit: 374 x 1680 km, 63.3° (Epoch: 11 December)

Event Time Altitude Azimuth Distance (km) Brightness Sun altitude
Exits shadow 04:15:49 54° 172° (S) 513 3.1 -20.5°
Maximum altitude 04:16:14 61° 133° (SE) 473 3.1 -20.4°
Drops below altitude 10° 04:19:12 10° 51° (NE) 1,410 6.1 -20.0°
Sets 04:21:07 0° 48° (NE) 2,248 7.2 -19.7°
